PSLV R/B, 40058

Orbit data source: Space-Track

PSLV R/B, 40058 is space debris in SSO originally from a launch on Mon, 30 Jun 2014 UTC launched from the Sirharikota (SRI). Debris objects in space refer to the collection of defunct objects orbiting the Earth. Examples of debris include non-operational satellites, rocket bodies, and fragments generated from explosions, collisions, or faulty payload assembly.

Loading next visibility...
PSLV R/B details
Identifier
40058, 2014-034F
Orbit
SSO
Last TLE update11 hours ago
Origin
Flag of INISRO (IN / IND)
ManufacturerVSSC/LPSC
MissionSpacecraft
Bus & MotorPS-4, Unknown motor
Mass920 kg wet, 920 kg dry
Launch date (UTC)
2014-06-30 (10 years ago)
Launch vehicleUnknown
Launch site
Sirharikota (SRI)
Object type
Payload
Rocket body
Debris
Shape & HBRCyl + Cyl + 2 Nozzle, 3.238 m
Radar Cross Section6.185 m², Large (>1 m²)

Expand to show TLE details & history

TLE from 11 hours ago
0 PSLV R/B
1 40058U 14034F   24361.13671261  .00002973  00000-0  37477-3 0  9994
2 40058  98.3298 189.7484 0019610 271.8154  88.0812 14.82674037566291
Epoch: 2024-12-26T03:16Z
Definitive object data (Epoch: 2024-12-26T03:16:51.969Z)
Latitude-0.00003°
Longitude45.41143°
Altitude623.475 km
Speed7.547 km/s
True Right ascension12h 38m 59s
True Declination0° 00' 00"
Sunlit
Object was in daylight at TLE epoch
Visualization TLE readout
Latitude-23.20721°
Longitude49.4783°
Altitude624.145 km
Speed7.548 km/s
Apparent Right ascension10h 32m 38s
Apparent Declination-72° 59' 54"
Sunlit
Object is in daylight
Visualization observer readout
Local Sidereal Time13:52:41
Azimuth194.699° SSW
Elevation-28.002°
Doppler factor1
Orbital elements
Apogee altitude631.673 km
Perigee altitude604.234 km
Semi-major axis6,996.09 km
Eccentricity0.001961
Inclination98.3298°
RAAN189.7484°
Arg. of periapsis271.8154°
True anomaly88.30581°
Mean anomaly88.0812°
Eccentric anomaly88.1935°
Mean motion3.70903 °/min
BSTAR0.00037477
Orbital period97.06 mins
Loading maneuver chart data...
Loading historical data...
Loading historical data...
Loading historical data...
Loading historical data...
Loading historical data...
Loading historical data...
Loading historical data...
Other satellites on launch #34 in the year 2014 (2014-06-30 UTC)

PSLV R/B Visibility forecast

Observer location: undefined°, undefined

Span
Click to sort rows by Start time (UTC) header in descending order
Start Az.
Max El. time (UTC)
Max El. Az.
Max El.
End time (UTC)
End Az.
7 mins2024-12-27 00:54:49.885Z40.005° NE2024-12-27 00:58:49.885Z105.954° ESE22.877°2024-12-27 01:01:49.885Z151.049° SSE
6 mins2024-12-27 02:31:49.885Z339.242° N2024-12-27 02:34:49.885Z281.017° WNW24.25°2024-12-27 02:37:49.885Z235.547° WSW
4 mins2024-12-27 11:50:49.885Z94.152° ESE2024-12-27 11:52:49.885Z56.931° ENE19.357°2024-12-27 11:54:49.885Z25.782° NE
6 mins2024-12-27 13:25:49.885Z210.155° SW2024-12-27 13:27:49.885Z251.393° W28.87°2024-12-27 13:31:49.885Z325.74° NNW
|